• In United Kingdom
  • List of Countries
  • For 7 days
  • Water Temperature
  • Satellite Maps
  • Weather Map
  • Weather Widgets
  • user-avatar
    Login

    Hourly Weather Fresnillo

    Today, 17 August, Thursday

    Time Temperature Precipitation Wind Pressure Humidity
    00:00 +19°C° 0 mm 4 mps 587 mmHg 65%
    01:00 +18°C° 0 mm 4 mps 587 mmHg 69%
    02:00 +17°C° 0 mm 3 mps 587 mmHg 73%
    03:00 +17°C° 0 mm 3 mps 587 mmHg 76%
    04:00 +16°C° 0 mm 3 mps 587 mmHg 79%
    05:00 +16°C° 0 mm 3 mps 587 mmHg 82%
    06:00 +17°C° 0 mm 3 mps 588 mmHg 76%
    07:00 +19°C° 0 mm 3 mps 589 mmHg 70%
    08:00 +20°C° 0 mm 3 mps 589 mmHg 64%
    09:00 +23°C° 0 mm 2 mps 590 mmHg 55%
    10:00 +25°C° 0 mm 1 mps 590 mmHg 46%
    11:00 +24°C° 0 mm 0 mps 591 mmHg 38%
    12:00 +27°C° 0 mm 1 mps 590 mmHg 35%
    13:00 +28°C° 0 mm 1 mps 590 mmHg 32%
    14:00 +29°C° 0 mm 2 mps 590 mmHg 29%
    15:00 +28°C° 0 mm 2 mps 589 mmHg 32%
    16:00 +27°C° 0 mm 3 mps 589 mmHg 35%
    17:00 +27°C° 0 mm 3 mps 588 mmHg 38%
    18:00 +25°C° 0.4 mm 3 mps 588 mmHg 45%
    19:00 +23°C° 0.4 mm 4 mps 588 mmHg 53%
    20:00 +21°C° 0.4 mm 4 mps 588 mmHg 60%
    21:00 +20°C° 0.9 mm 4 mps 588 mmHg 64%
    22:00 +19°C° 0.9 mm 4 mps 588 mmHg 69%
    23:00 +19°C° 0.9 mm 4 mps 588 mmHg 73%

    Tomorrow, 18 August, Friday

    Time Temperature Precipitation Wind Pressure Humidity
    00:00 +18°C° 0.2 mm 4 mps 587 mmHg 75%
    01:00 +17°C° 0.2 mm 3 mps 587 mmHg 78%
    02:00 +17°C° 0.2 mm 3 mps 587 mmHg 80%
    03:00 +16°C° 0.1 mm 3 mps 587 mmHg 82%
    04:00 +16°C° 0.1 mm 3 mps 586 mmHg 83%
    05:00 +16°C° 0.1 mm 3 mps 586 mmHg 85%
    06:00 +17°C° 0.3 mm 3 mps 587 mmHg 79%
    07:00 +18°C° 0.3 mm 4 mps 588 mmHg 73%
    08:00 +19°C° 0.3 mm 4 mps 589 mmHg 67%
    09:00 +21°C° 0.2 mm 3 mps 589 mmHg 59%
    10:00 +24°C° 0.2 mm 3 mps 590 mmHg 51%
    11:00 +26°C° 0.2 mm 3 mps 590 mmHg 43%
    12:00 +26°C° 0.2 mm 3 mps 590 mmHg 40%
    13:00 +27°C° 0.2 mm 3 mps 590 mmHg 37%
    14:00 +28°C° 0.2 mm 4 mps 589 mmHg 35%
    15:00 +27°C° 0 mm 3 mps 589 mmHg 36%
    16:00 +27°C° 0 mm 3 mps 588 mmHg 38%
    17:00 +26°C° 0 mm 3 mps 588 mmHg 39%
    18:00 +25°C° 0.3 mm 3 mps 588 mmHg 44%
    19:00 +24°C° 0.3 mm 3 mps 588 mmHg 49%
    20:00 +21°C° 0.3 mm 4 mps 588 mmHg 53%
    21:00 +20°C° 0.8 mm 3 mps 588 mmHg 60%
    22:00 +19°C° 0.8 mm 3 mps 588 mmHg 67%
    23:00 +18°C° 0.8 mm 3 mps 588 mmHg 73%

    Day after tomorrow, 19 August, Saturday

    Time Temperature Precipitation Wind Pressure Humidity
    00:00 +18°C° 0.5 mm 2 mps 587 mmHg 74%
    01:00 +17°C° 0.5 mm 2 mps 587 mmHg 76%
    02:00 +18°C° 0.5 mm 1 mps 587 mmHg 77%
    03:00 +16°C° 0 mm 2 mps 586 mmHg 79%
    04:00 +16°C° 0 mm 2 mps 586 mmHg 80%
    05:00 +15°C° 0 mm 2 mps 586 mmHg 82%
    06:00 +16°C° 0 mm 2 mps 587 mmHg 75%
    07:00 +18°C° 0 mm 2 mps 588 mmHg 68%
    08:00 +19°C° 0 mm 2 mps 588 mmHg 62%
    09:00 +21°C° 0 mm 2 mps 589 mmHg 54%
    10:00 +24°C° 0 mm 3 mps 589 mmHg 46%
    11:00 +26°C° 0 mm 3 mps 590 mmHg 38%
    12:00 +26°C° 0 mm 3 mps 589 mmHg 35%
    13:00 +27°C° 0 mm 3 mps 589 mmHg 33%
    14:00 +28°C° 0 mm 3 mps 589 mmHg 31%
    15:00 +27°C° 0 mm 3 mps 588 mmHg 33%
    16:00 +26°C° 0 mm 3 mps 588 mmHg 36%
    17:00 +26°C° 0 mm 3 mps 587 mmHg 39%
    18:00 +25°C° 0 mm 3 mps 587 mmHg 44%
    19:00 +24°C° 0 mm 3 mps 587 mmHg 48%
    20:00 +22°C° 0 mm 3 mps 587 mmHg 53%
    21:00 +21°C° 0.1 mm 3 mps 587 mmHg 58%
    22:00 +19°C° 0.1 mm 3 mps 587 mmHg 64%
    23:00 +18°C° 0.1 mm 4 mps 587 mmHg 70%

    20 August, Sunday

    Time Temperature Precipitation Wind Pressure Humidity
    00:00 +17°C° 0 mm 3 mps 586 mmHg 72%
    01:00 +17°C° 0 mm 3 mps 586 mmHg 74%
    02:00 +16°C° 0 mm 2 mps 585 mmHg 76%
    03:00 +16°C° 0 mm 2 mps 585 mmHg 77%
    04:00 +15°C° 0 mm 2 mps 585 mmHg 79%
    05:00 +15°C° 0 mm 2 mps 585 mmHg 80%
    06:00 +16°C° 0 mm 3 mps 586 mmHg 72%
    07:00 +18°C° 0 mm 3 mps 587 mmHg 64%
    08:00 +19°C° 0 mm 4 mps 588 mmHg 57%
    09:00 +21°C° 0 mm 4 mps 588 mmHg 48%
    10:00 +23°C° 0 mm 4 mps 589 mmHg 40%
    11:00 +26°C° 0 mm 5 mps 589 mmHg 31%
    12:00 +27°C° 0 mm 5 mps 589 mmHg 29%
    13:00 +28°C° 0 mm 5 mps 589 mmHg 27%
    14:00 +29°C° 0 mm 5 mps 588 mmHg 24%
    15:00 +29°C° 0 mm 5 mps 588 mmHg 25%
    16:00 +28°C° 0 mm 5 mps 588 mmHg 25%
    17:00 +28°C° 0 mm 6 mps 588 mmHg 25%
    18:00 +26°C° 0 mm 6 mps 587 mmHg 30%
    19:00 +23°C° 0 mm 6 mps 587 mmHg 35%
    20:00 +21°C° 0 mm 6 mps 587 mmHg 40%
    21:00 +20°C° 0 mm 6 mps 587 mmHg 46%
    22:00 +19°C° 0 mm 6 mps 587 mmHg 52%
    23:00 +17°C° 0 mm 6 mps 587 mmHg 58%

    21 August, Monday

    Time Temperature Precipitation Wind Pressure Humidity
    00:00 +16°C° 0 mm 5 mps 587 mmHg 60%
    01:00 +15°C° 0 mm 5 mps 586 mmHg 63%
    02:00 +14°C° 0 mm 4 mps 586 mmHg 65%
    03:00 +14°C° 0 mm 3 mps 586 mmHg 69%
    04:00 +13°C° 0 mm 3 mps 586 mmHg 72%
    05:00 +12°C° 0 mm 3 mps 586 mmHg 76%
    06:00 +14°C° 0 mm 3 mps 587 mmHg 70%
    07:00 +17°C° 0 mm 4 mps 588 mmHg 63%
    08:00 +19°C° 0 mm 4 mps 589 mmHg 57%
    09:00 +21°C° 0 mm 4 mps 589 mmHg 49%
    10:00 +23°C° 0 mm 4 mps 590 mmHg 40%
    11:00 +26°C° 0 mm 5 mps 590 mmHg 32%
    12:00 +27°C° 0 mm 5 mps 590 mmHg 29%
    13:00 +28°C° 0 mm 5 mps 590 mmHg 26%
    14:00 +29°C° 0 mm 5 mps 590 mmHg 23%
    15:00 +28°C° 0 mm 6 mps 589 mmHg 24%
    16:00 +28°C° 0 mm 6 mps 589 mmHg 24%
    17:00 +28°C° 0 mm 6 mps 589 mmHg 25%
    18:00 +26°C° 0 mm 6 mps 589 mmHg 30%
    19:00 +23°C° 0 mm 6 mps 589 mmHg 35%
    20:00 +21°C° 0 mm 6 mps 588 mmHg 39%
    21:00 +20°C° 0 mm 6 mps 588 mmHg 45%
    22:00 +17°C° 0 mm 6 mps 588 mmHg 50%
    23:00 +16°C° 0 mm 6 mps 588 mmHg 56%

    22 August, Tuesday

    Time Temperature Precipitation Wind Pressure Humidity
    00:00 +15°C° 0 mm 5 mps 587 mmHg 58%
    01:00 +15°C° 0 mm 4 mps 587 mmHg 61%
    02:00 +14°C° 0 mm 3 mps 587 mmHg 63%
    03:00 +13°C° 0 mm 3 mps 587 mmHg 68%
    04:00 +14°C° 0 mm 2 mps 587 mmHg 72%
    05:00 +13°C° 0 mm 2 mps 587 mmHg 77%
    06:00 +15°C° 0 mm 2 mps 587 mmHg 70%
    07:00 +16°C° 0 mm 3 mps 588 mmHg 62%
    08:00 +18°C° 0 mm 3 mps 589 mmHg 55%
    09:00 +20°C° 0 mm 4 mps 590 mmHg 45%
    10:00 +22°C° 0 mm 4 mps 590 mmHg 36%
    11:00 +26°C° 0 mm 5 mps 591 mmHg 27%
    12:00 +27°C° 0 mm 5 mps 591 mmHg 25%
    13:00 +27°C° 0 mm 5 mps 591 mmHg 24%
    14:00 +28°C° 0 mm 5 mps 590 mmHg 22%
    15:00 +28°C° 0 mm 5 mps 590 mmHg 23%
    16:00 +28°C° 0 mm 5 mps 590 mmHg 25%
    17:00 +27°C° 0 mm 6 mps 589 mmHg 26%
    18:00 +24°C° 0 mm 6 mps 589 mmHg 33%
    19:00 +23°C° 0 mm 6 mps 589 mmHg 39%
    20:00 +21°C° 0 mm 6 mps 589 mmHg 46%
    21:00 +20°C° 0 mm 6 mps 588 mmHg 52%
    22:00 +17°C° 0 mm 5 mps 588 mmHg 58%
    23:00 +16°C° 0 mm 5 mps 588 mmHg 64%
    Show more